Regional Weather Roundup
Issued by NWS

Home | Current Version | Previous Version | Graphics & Text | Print | Product List | Glossary On
Versions: 1 2 3 4 5 6 7 8 9 10 11 12 13 14 15 16 17 18 19 20 21 22 23 24 25 26 27 28 29 30 31 32 33 34 35 36 37 38 39 40 41 42 43 44 45 46 47 48 49 50
000
ASUS45 KABQ 240601
RWRNM
WEATHER ROUNDUP FOR NEW MEXICO
NATIONAL WEATHER SERVICE ALBUQUERQUE NM
1200 AM MDT FRI OCT 24 2014

NOTE: "FAIR" MEANS FEW OR NO CLOUDS BELOW 12,000 FEET AGL WITH NO
       SIGNIFICANT WEATHER OR OBSTRUCTIONS TO VISION.

      THIS PRODUCT IS RELEASED AS TWO VERSIONS.  ONE VERSION NEAR
      THE TOP OF THE HOUR CONTAINING PRELIMINARY DATA FROM ALBUQUERQUE
      AND OTHER STATIONS.  A FINAL VERSION WITH ADDITIONAL DATA IS
      ISSUED ABOUT 10 MINUTES AFTER THE HOUR.

NMZ501-503-504-510>518-240700-
NORTHWEST PLATEAU/NORTHCENTRAL MOUNTAINS

CITY           SKY/WX    TMP DP  RH WIND       PRES   REMARKS
FARMINGTON     CLEAR     47  32  56 E7        30.28R
6HR MIN TEMP:  46; 6HR MAX TEMP:  68;

LOS ALAMOS     CLEAR     57  28  33 CALM      30.37S
SANTA FE       CLEAR     52  30  43 N9        30.30S
6HR MIN TEMP:  48; 6HR MAX TEMP:  69;

TAOS           CLEAR     41  27  56 N3        30.37R
ANGEL FIRE     FAIR      33  28  83 CALM      30.43S

$$
NMZ402-403-502-505>509-240700-
WESTCENTRAL MOUNTAINS/SOUTHWEST MOUNTAINS

CITY           SKY/WX    TMP DP  RH WIND       PRES   REMARKS
GALLUP         CLEAR     41  33  73 E5        30.34S
6HR MIN TEMP:  41; 6HR MAX TEMP:  68;

SILVER CITY    CLEAR     54  45  71 N9        30.29S

$$
NMZ407-409-411-412-240700-
SOUTHERN DESERTS

CITY           SKY/WX    TMP DP  RH WIND       PRES   REMARKS
LORDSBURG      FAIR      54  43  66 MISG      30.20S
DEMING         CLEAR     57  48  72 NW6       30.21S
6HR MIN TEMP:  57; 6HR MAX TEMP:  76;

LAS CRUCES     CLEAR     59  50  72 CALM      30.22S
HOLLOMAN AFB   CLEAR     57  48  71 CALM      30.19R
T OR C         CLEAR     57  48  72 W6        30.22S
6HR MIN TEMP:  57; 6HR MAX TEMP:  76;


$$
NMZ519>523-240700-
CENTRAL VALLEYS/CENTRAL HIGHLANDS

CITY           SKY/WX    TMP DP  RH WIND       PRES   REMARKS
ALBUQUERQUE    CLEAR     58  37  45 E3        30.27S
6HR MIN TEMP:  54; 6HR MAX TEMP:  73;

DOUBLE EAGLE   CLEAR     52  32  46 NW8       30.30S
MORIARTY ARPT  FAIR      40  34  79 CALM      30.32R
6HR MIN TEMP:  40; 6HR MAX TEMP:  67;

CLINES CORNERS CLEAR     46  29  51 W10       30.32S
6HR MIN TEMP:  46; 6HR MAX TEMP:  64;

BELEN          NOT AVBL
SOCORRO        FAIR      55  44  67 CALM      30.24R
6HR MIN TEMP:  55; 6HR MAX TEMP:  73;


$$
NMZ524>526-539-540-240700-
SOUTHCENTRAL MOUNTAINS

CITY           SKY/WX    TMP DP  RH WIND       PRES   REMARKS
RUIDOSO        CLEAR     52  36  54 W9        30.35F

$$
NMZ527>531-240700-
NORTHEAST HIGHLANDS/NORTHEAST PLAINS

CITY           SKY/WX    TMP DP  RH WIND       PRES   REMARKS
LAS VEGAS      CLEAR     48  30  49 NW9       30.31S
6HR MIN TEMP:  46; 6HR MAX TEMP:  64;

RATON          CLEAR     47  36  65 NE5       30.27S
6HR MIN TEMP:  44; 6HR MAX TEMP:  66;

CLAYTON        CLEAR     56  46  69 W9        30.19S
6HR MIN TEMP:  52; 6HR MAX TEMP:  67;


$$
NMZ532>537-240700-
EASTCENTRAL PLAINS

CITY           SKY/WX    TMP DP  RH WIND       PRES   REMARKS
TUCUMCARI      CLEAR     57  47  69 CALM      30.13S
6HR MIN TEMP:  55; 6HR MAX TEMP:  77;

CANNON AFB     CLEAR     61  52  71 W9        30.17S
6HR MIN TEMP:  61; 6HR MAX TEMP:  73;

CLOVIS AIRPORT CLEAR     54  45  71 W7        30.19S

$$
NMZ028-029-538-240700-
SOUTHEAST PLAINS

CITY           SKY/WX    TMP DP  RH WIND       PRES   REMARKS
ROSWELL        CLEAR     58  55  90 CALM      30.15S
6HR MIN TEMP:  58; 6HR MAX TEMP:  73;

CARLSBAD       CLEAR     59  55  87 SW6       30.13S
6HR MIN TEMP:  59; 6HR MAX TEMP:  72;

HOBBS          CLEAR     57  54  88 S7        30.18S


$$



USA.gov is the U.S. government's official web portal to all federal, state and local government web resources and services.